AKT508 CYVP-CYFB

Flight info

Callsign AKT508
Flight time N/A
Altitude 35000
Route YFY
Aircraft B737/M-SDE2E3FGHIRWXY/LB1

Departure

Time 2026-05-05 23:46
Airport Kuujjuaq Airport (CYVP)

Arrival

Time N/A
Airport Iqaluit Airport (CYFB)
Time Latitude Longitude Altitude Speed Heading
2026-05-05 23:23 58.09908 -68.41939 109 ft 0 kts 131°
2026-05-05 23:39 58.09913 -68.41950 111 ft 4 kts 134°
2026-05-05 23:40 58.09933 -68.41980 115 ft 4 kts 164°
2026-05-05 23:40 58.09957 -68.41978 118 ft 5 kts 216°
2026-05-05 23:40 58.09965 -68.41966 116 ft 4 kts 223°
2026-05-05 23:44 58.09962 -68.41970 118 ft 2 kts 223°
2026-05-05 23:44 58.09931 -68.42024 117 ft 10 kts 220°
2026-05-05 23:44 58.09841 -68.41948 102 ft 22 kts 131°
2026-05-05 23:45 58.09734 -68.41721 89 ft 18 kts 133°
2026-05-05 23:45 58.09678 -68.41714 92 ft 0 kts 220°
2026-05-05 23:45 58.09565 -68.41905 94 ft 62 kts 222°
2026-05-05 23:45 58.09030 -68.42816 98 ft 141 kts 221°
2026-05-05 23:46 58.08199 -68.44228 510 ft 168 kts 221°
2026-05-05 23:46 58.07348 -68.45818 1422 ft 178 kts 238°
2026-05-05 23:46 58.07256 -68.48180 2106 ft 203 kts 294°
2026-05-05 23:46 58.08267 -68.50241 2458 ft 234 kts 322°
2026-05-05 23:47 58.09464 -68.52425 3123 ft 248 kts 312°
2026-05-05 23:47 58.10974 -68.54228 3776 ft 268 kts 347°
2026-05-05 23:47 58.12847 -68.54463 4739 ft 273 kts
2026-05-05 23:47 58.14773 -68.54343 5716 ft 280 kts
2026-05-05 23:48 58.16741 -68.54208 6662 ft 286 kts
2026-05-05 23:48 58.18753 -68.54116 7611 ft 291 kts
2026-05-05 23:48 58.20795 -68.54080 8531 ft 296 kts
2026-05-05 23:48 58.22857 -68.54090 9421 ft 302 kts
2026-05-05 23:49 58.24968 -68.54139 10319 ft 305 kts
2026-05-05 23:49 58.27163 -68.54215 10721 ft 329 kts
2026-05-05 23:49 58.29542 -68.54315 10988 ft 353 kts
2026-05-05 23:49 58.32036 -68.54445 11646 ft 363 kts
2026-05-05 23:50 58.34566 -68.54592 12535 ft 365 kts 360°
2026-05-05 23:50 58.37107 -68.54752 13438 ft 367 kts 359°
2026-05-05 23:50 58.39677 -68.54922 14225 ft 372 kts 359°
2026-05-05 23:50 58.42278 -68.55093 14985 ft 376 kts 359°
2026-05-05 23:51 58.44909 -68.55267 15753 ft 380 kts 359°
2026-05-05 23:51 58.47561 -68.55442 16519 ft 383 kts 359°
2026-05-05 23:51 58.50243 -68.55621 17228 ft 387 kts 359°
2026-05-05 23:51 58.52958 -68.55803 17886 ft 393 kts 358°
2026-05-05 23:52 58.55698 -68.55987 18566 ft 396 kts 358°
2026-05-05 23:52 58.58465 -68.56172 19233 ft 400 kts 358°
2026-05-05 23:52 58.61259 -68.56360 19859 ft 404 kts 358°
2026-05-05 23:52 58.64083 -68.56550 20434 ft 409 kts 358°
2026-05-05 23:53 58.66940 -68.56743 21028 ft 413 kts 358°
2026-05-05 23:53 58.69824 -68.56938 21623 ft 416 kts 358°
2026-05-05 23:53 58.72732 -68.57136 22152 ft 420 kts 358°
2026-05-05 23:53 58.75670 -68.57335 22690 ft 424 kts 358°
2026-05-05 23:54 58.78629 -68.57536 23219 ft 427 kts 358°
2026-05-05 23:54 58.81616 -68.57739 23717 ft 431 kts 358°
2026-05-05 23:54 58.84632 -68.57943 24152 ft 436 kts 358°
2026-05-05 23:54 58.87670 -68.58149 24635 ft 439 kts 358°
2026-05-05 23:55 58.90728 -68.58358 25127 ft 441 kts 359°
2026-05-05 23:55 58.93806 -68.58568 25567 ft 444 kts 359°
2026-05-05 23:55 58.96911 -68.58781 25997 ft 447 kts 359°
2026-05-05 23:55 59.00027 -68.58993 26405 ft 450 kts 360°
2026-05-05 23:56 59.03170 -68.59209 26799 ft 453 kts 360°
2026-05-05 23:56 59.06291 -68.59425 27187 ft 456 kts
2026-05-05 23:56 59.09468 -68.59645 27569 ft 459 kts
2026-05-05 23:56 59.12667 -68.59866 27930 ft 461 kts
2026-05-05 23:57 59.15885 -68.60087 28294 ft 464 kts
2026-05-05 23:57 59.19121 -68.60309 28630 ft 467 kts
2026-05-05 23:57 59.22372 -68.60535 28952 ft 469 kts
2026-05-05 23:57 59.25648 -68.60765 29274 ft 471 kts
2026-05-05 23:58 59.28932 -68.60995 29584 ft 474 kts
2026-05-05 23:58 59.32231 -68.61227 29907 ft 475 kts
2026-05-05 23:58 59.35536 -68.61460 30336 ft 474 kts
2026-05-05 23:58 59.38828 -68.61695 30798 ft 472 kts
2026-05-05 23:59 59.42108 -68.61928 31166 ft 473 kts
2026-05-05 23:59 59.45408 -68.62161 31501 ft 474 kts
2026-05-05 23:59 59.48699 -68.62393 31892 ft 474 kts
2026-05-05 23:59 59.51989 -68.62627 32319 ft 472 kts
2026-05-06 00:00 59.55277 -68.62860 32676 ft 473 kts
2026-05-06 00:00 59.58568 -68.63093 32983 ft 473 kts
2026-05-06 00:00 59.61857 -68.63326 33336 ft 473 kts
2026-05-06 00:00 59.65150 -68.63560 33685 ft 473 kts
2026-05-06 00:01 59.68440 -68.63795 34013 ft 473 kts
2026-05-06 00:01 59.71726 -68.64032 34330 ft 473 kts
2026-05-06 00:01 59.75015 -68.64269 34604 ft 473 kts
2026-05-06 00:01 59.78264 -68.64502 34842 ft 475 kts
2026-05-06 00:02 59.81568 -68.64737 35074 ft 476 kts
2026-05-06 00:02 59.84892 -68.64976 35050 ft 479 kts
2026-05-06 00:02 59.91543 -68.65457 35061 ft 476 kts
2026-05-06 00:03 59.98136 -68.65940 35075 ft 472 kts
2026-05-06 00:03 60.04693 -68.66420 35086 ft 470 kts
2026-05-06 00:04 60.11236 -68.66896 35095 ft 470 kts
2026-05-06 00:04 60.17774 -68.67380 35098 ft 470 kts
2026-05-06 00:05 60.27583 -68.68103 35108 ft 471 kts
2026-05-06 00:06 60.34153 -68.68586 35115 ft 474 kts
2026-05-06 00:06 60.40756 -68.69079 35139 ft 477 kts
2026-05-06 00:07 60.47404 -68.69576 35157 ft 479 kts
2026-05-06 00:07 60.54087 -68.70080 35163 ft 482 kts
2026-05-06 00:08 60.60801 -68.70590 35165 ft 484 kts
2026-05-06 00:08 60.67531 -68.71102 35173 ft 484 kts
2026-05-06 00:09 60.74131 -68.71604 35221 ft 481 kts
2026-05-06 00:09 60.80787 -68.72116 35231 ft 477 kts
2026-05-06 00:10 60.87414 -68.72625 35159 ft 479 kts
2026-05-06 00:10 60.90756 -68.72879 35035 ft 481 kts
2026-05-06 00:10 60.94102 -68.73135 34913 ft 481 kts
2026-05-06 00:10 60.97442 -68.73396 34785 ft 479 kts
2026-05-06 00:11 61.00776 -68.73656 34668 ft 479 kts
2026-05-06 00:11 61.07431 -68.74176 34617 ft 478 kts
2026-05-06 00:12 61.14080 -68.74697 34621 ft 479 kts
2026-05-06 00:12 61.20753 -68.75216 34631 ft 481 kts
2026-05-06 00:13 61.26360 -68.75655 34637 ft 482 kts
2026-05-06 00:13 61.33019 -68.76182 34641 ft 483 kts
2026-05-06 00:14 61.39737 -68.76716 34648 ft 483 kts
2026-05-06 00:14 61.46451 -68.77253 34655 ft 483 kts
2026-05-06 00:15 61.53163 -68.77791 34661 ft 483 kts
2026-05-06 00:15 61.59876 -68.78333 34669 ft 483 kts
2026-05-06 00:16 61.66586 -68.78875 34676 ft 482 kts
2026-05-06 00:16 61.73284 -68.79418 34682 ft 481 kts
2026-05-06 00:17 61.79973 -68.79963 34687 ft 481 kts
2026-05-06 00:17 61.86660 -68.80510 34695 ft 481 kts
2026-05-06 00:18 61.93344 -68.81058 34700 ft 480 kts
2026-05-06 00:18 62.00019 -68.81608 34706 ft 480 kts
2026-05-06 00:19 62.06690 -68.82162 34711 ft 480 kts
2026-05-06 00:19 62.13370 -68.82720 34723 ft 481 kts
2026-05-06 00:20 62.20058 -68.83278 34721 ft 481 kts
2026-05-06 00:20 62.26743 -68.83839 34729 ft 481 kts
2026-05-06 00:21 62.33365 -68.84411 34269 ft 470 kts
2026-05-06 00:21 62.36645 -68.84690 33499 ft 473 kts
2026-05-06 00:21 62.39944 -68.84961 32613 ft 478 kts
2026-05-06 00:21 62.43282 -68.85231 31733 ft 482 kts
2026-05-06 00:22 62.46644 -68.85512 30856 ft 485 kts
2026-05-06 00:22 62.50015 -68.85801 30161 ft 483 kts
2026-05-06 00:22 62.53349 -68.86101 29675 ft 476 kts
2026-05-06 00:22 62.56641 -68.86400 29162 ft 470 kts
2026-05-06 00:23 62.59882 -68.86688 28629 ft 464 kts
2026-05-06 00:23 62.63095 -68.86971 28078 ft 459 kts
2026-05-06 00:23 62.66269 -68.87247 27528 ft 454 kts
2026-05-06 00:23 62.69374 -68.87514 26968 ft 448 kts
2026-05-06 00:24 62.72452 -68.87787 26195 ft 439 kts